Location: Caltech
(34.1382°N, 118.1253°W)
Time: 19:03:31
(UTC-07:00)

AO-7 - Visible Passes

Search period start: 27 April 2015 00:00
Search period end: 07 May 2015 00:00
Orbit: 1440 x 1459 km, 101.5° (Epoch: 26 April)

Date Brightness Start Highest point End Pass type
(mag) Time Alt. Az. Time Alt. Az. Time Alt. Az.
27 Apr ? 04:55:40 10° NNE 05:03:59 71° ESE 05:12:19 10° S visible
28 Apr ? 03:56:52 10° NE 04:03:38 28° E 04:10:40 10° SSE visible
29 Apr ? 04:48:46 10° NNE 04:57:02 65° ESE 05:05:19 10° S visible
30 Apr ? 03:50:13 10° NE 03:56:37 25° E 04:03:20 10° SSE visible
01 May ? 04:41:53 10° NNE 04:50:04 59° ESE 04:58:17 10° S visible
02 May ? 03:43:36 10° NE 03:49:34 22° E 03:55:55 10° SE visible
02 May ? 05:34:45 10° N 05:43:01 67° WNW 05:51:15 10° SSW visible
03 May ? 04:35:01 10° NNE 04:43:06 53° ESE 04:51:13 10° S visible
04 May ? 03:37:03 10° NE 03:42:31 20° E 03:48:26 10° SE visible
04 May ? 05:27:47 10° NNE 05:36:06 74° WNW 05:44:24 10° SSW visible
05 May ? 04:28:11 10° NNE 04:36:07 48° E 04:44:07 10° S visible
06 May ? 03:30:35 10° NE 03:35:27 17° E 03:40:51 10° SE visible
06 May ? 05:20:49 10° NNE 05:29:11 81° WNW 05:37:32 10° SSW visible
